Precipitable_Water
0.91 0.90 0.86 0.79 0.71 0.69 0.69 0.67 0.65 0.63 0.61 0.58 0.53 0.51 0.53 0.55 0.57 0.54 0.53 0.52 0.52 0.52 0.52 0.52 0.50 0.48 0.46 0.42 0.40 0.40 0.40 0.40 0.41 0.42 0.41 0.42 0.41 0.41 0.40 0.40 0.40 0.40
0.89 0.89 0.88 0.83 0.75 0.73 0.73 0.72 0.67 0.66 0.65 0.62 0.60 0.59 0.59 0.60 0.60 0.60 0.57 0.55 0.54 0.54 0.55 0.55 0.55 0.55 0.52 0.47 0.42 0.37 0.37 0.37 0.37 0.41 0.37 0.37 0.37 0.37 0.35 0.34 0.34 0.36
0.85 0.85 0.84 0.77 0.71 0.71 0.74 0.75 0.72 0.69 0.68 0.66 0.64 0.63 0.63 0.65 0.63 0.63 0.61 0.60 0.58 0.58 0.58 0.58 0.59 0.59 0.58 0.54 0.51 0.47 0.42 0.39 0.37 0.39 0.36 0.35 0.36 0.35 0.34 0.33 0.32 0.32
0.86 0.85 0.80 0.74 0.71 0.71 0.75 0.75 0.72 0.70 0.69 0.67 0.63 0.65 0.66 0.66 0.64 0.62 0.62 0.64 0.62 0.62 0.63 0.63 0.63 0.64 0.63 0.59 0.57 0.54 0.53 0.51 0.50 0.48 0.43 0.41 0.39 0.38 0.37 0.37 0.36 0.36
0.87 0.84 0.78 0.75 0.75 0.76 0.77 0.74 0.71 0.69 0.68 0.69 0.69 0.67 0.67 0.67 0.65 0.63 0.64 0.66 0.67 0.67 0.67 0.65 0.65 0.67 0.68 0.65 0.62 0.59 0.58 0.57 0.57 0.55 0.52 0.49 0.49 0.47 0.46 0.45 0.43 0.41
0.88 0.84 0.76 0.76 0.78 0.83 0.83 0.76 0.71 0.71 0.72 0.74 0.73 0.74 0.74 0.75 0.73 0.70 0.71 0.71 0.74 0.75 0.75 0.74 0.73 0.73 0.73 0.71 0.68 0.65 0.64 0.61 0.61 0.60 0.56 0.53 0.53 0.54 0.53 0.52 0.48 0.45
0.88 0.85 0.77 0.78 0.80 0.85 0.87 0.82 0.74 0.72 0.74 0.78 0.82 0.82 0.84 0.83 0.83 0.82 0.82 0.83 0.84 0.87 0.87 0.90 0.88 0.84 0.84 0.82 0.78 0.73 0.70 0.68 0.66 0.64 0.60 0.59 0.57 0.54 0.56 0.55 0.53 0.49
0.91 0.88 0.79 0.77 0.79 0.83 0.87 0.88 0.84 0.82 0.82 0.81 0.81 0.89 0.89 0.88 0.90 0.92 0.94 0.95 0.96 0.98 1.00 0.99 1.00 0.99 0.98 0.96 0.92 0.91 0.88 0.85 0.79 0.72 0.67 0.64 0.63 0.61 0.59 0.59 0.57 0.53
0.96 0.90 0.81 0.77 0.79 0.83 0.88 0.92 0.92 0.92 0.90 0.87 0.85 0.91 0.95 0.94 0.94 0.94 0.95 0.98 1.00 1.02 1.03 1.02 1.01 1.03 1.05 1.03 1.01 1.00 0.97 0.94 0.91 0.88 0.83 0.77 0.72 0.68 0.67 0.67 0.63 0.60
0.99 0.94 0.84 0.78 0.79 0.85 0.90 0.93 0.95 0.97 0.95 0.92 0.92 0.96 0.98 0.99 1.01 0.99 0.98 0.99 1.01 1.03 1.05 1.05 1.04 1.04 1.04 1.03 1.03 1.01 0.98 0.97 0.97 0.97 0.95 0.94 0.90 0.87 0.83 0.77 0.72 0.71
0.96 0.94 0.85 0.79 0.81 0.86 0.91 0.95 0.97 0.98 0.95 0.92 0.93 0.96 1.04 1.08 1.08 1.08 1.04 1.02 1.02 1.02 1.02 1.02 1.03 1.04 1.03 1.03 1.04 1.04 1.03 1.02 1.00 0.99 0.98 0.98 0.97 0.97 0.95 0.91 0.85 0.82
0.94 0.92 0.86 0.78 0.80 0.87 0.91 0.92 0.93 0.92 0.90 0.91 0.94 0.96 0.99 1.00 1.00 1.05 1.02 1.03 1.04 1.06 1.06 1.06 1.06 1.06 1.06 1.04 1.04 1.04 1.03 1.04 1.02 1.01 0.99 0.99 0.99 0.98 0.98 0.97 0.93 0.91
0.89 0.87 0.85 0.82 0.83 0.88 0.91 0.91 0.93 0.94 0.94 0.93 0.93 0.94 0.97 0.97 0.97 0.98 1.05 1.04 1.05 1.06 1.03 1.02 1.02 1.02 1.01 1.01 1.00 1.00 0.97 0.96 0.99 1.00 1.00 0.99 0.99 0.99 0.98 0.97 0.97 0.96
0.89 0.88 0.86 0.87 0.87 0.90 0.92 0.93 0.96 0.98 0.97 0.98 0.98 0.96 0.98 1.00 0.99 1.01 1.03 1.03 1.02 1.03 1.05 1.05 1.03 1.01 1.00 1.00 1.01 1.01 1.00 0.99 1.00 1.00 1.00 0.98 0.94 0.93 0.92 0.92 0.93 0.95
0.91 0.90 0.90 0.91 0.90 0.91 0.93 0.92 0.91 0.92 0.93 0.96 0.99 1.00 0.99 0.99 1.01 1.02 1.00 0.99 0.99 1.01 1.02 1.02 0.99 0.97 0.97 0.99 0.99 1.00 1.01 0.98 0.98 1.00 0.99 0.98 0.93 0.91 0.91 0.91 0.93 0.97
0.90 0.89 0.88 0.89 0.88 0.88 0.90 0.91 0.92 0.93 0.94 0.93 0.92 0.94 0.96 0.96 0.96 0.98 0.98 0.97 0.94 0.94 0.94 0.94 0.94 0.96 0.97 0.98 0.98 0.98 0.98 0.98 0.98 0.98 0.97 0.95 0.92 0.90 0.89 0.91 0.95 0.98
0.89 0.89 0.87 0.85 0.86 0.86 0.88 0.90 0.91 0.91 0.89 0.87 0.86 0.87 0.89 0.90 0.90 0.90 0.90 0.90 0.88 0.87 0.87 0.87 0.87 0.88 0.87 0.85 0.84 0.86 0.90 0.92 0.93 0.93 0.95 0.96 0.96 0.94 0.94 0.95 0.94 0.97
0.82 0.81 0.80 0.79 0.79 0.79 0.80 0.81 0.83 0.82 0.76 0.74 0.74 0.73 0.75 0.76 0.76 0.77 0.80 0.81 0.81 0.81 0.79 0.78 0.77 0.77 0.76 0.75 0.76 0.77 0.77 0.77 0.78 0.79 0.82 0.84 0.87 0.89 0.91 0.91 0.92 0.94
0.59 0.59 0.60 0.62 0.65 0.66 0.68 0.69 0.68 0.64 0.60 0.59 0.59 0.62 0.64 0.63 0.63 0.64 0.64 0.66 0.65 0.63 0.62 0.64 0.65 0.66 0.64 0.64 0.65 0.68 0.72 0.74 0.74 0.75 0.74 0.74 0.74 0.75 0.76 0.77 0.78 0.79
0.52 0.52 0.52 0.52 0.53 0.54 0.55 0.55 0.54 0.53 0.54 0.56 0.57 0.58 0.57 0.57 0.58 0.57 0.57 0.57 0.57 0.57 0.56 0.56 0.55 0.56 0.54 0.54 0.54 0.55 0.57 0.62 0.66 0.68 0.69 0.69 0.69 0.70 0.69 0.68 0.68 0.67
0.51 0.51 0.50 0.51 0.51 0.52 0.52 0.52 0.51 0.51 0.51 0.51 0.51 0.51 0.51 0.50 0.50 0.48 0.47 0.47 0.46 0.45 0.43 0.42 0.43 0.44 0.44 0.44 0.44 0.46 0.48 0.50 0.52 0.56 0.58 0.60 0.62 0.63 0.63 0.63 0.63 0.62
0.52 0.51 0.52 0.53 0.53 0.53 0.53 0.52 0.51 0.51 0.49 0.50 0.50 0.49 0.48 0.47 0.47 0.46 0.45 0.45 0.45 0.45 0.44 0.42 0.44 0.45 0.46 0.46 0.46 0.46 0.45 0.46 0.49 0.51 0.52 0.54 0.54 0.57 0.58 0.59 0.59 0.57
0.54 0.53 0.52 0.53 0.53 0.53 0.53 0.53 0.53 0.53 0.53 0.54 0.51 0.51 0.49 0.48 0.47 0.47 0.48 0.47 0.46 0.46 0.45 0.44 0.44 0.46 0.47 0.48 0.49 0.48 0.48 0.48 0.49 0.50 0.51 0.52 0.54 0.56 0.58 0.59 0.59 0.58
0.56 0.53 0.52 0.52 0.52 0.52 0.53 0.54 0.55 0.55 0.55 0.57 0.54 0.52 0.51 0.51 0.51 0.50 0.50 0.50 0.48 0.48 0.48 0.46 0.46 0.47 0.48 0.48 0.49 0.49 0.49 0.48 0.49 0.49 0.50 0.51 0.53 0.55 0.57 0.58 0.59 0.58
0.57 0.56 0.54 0.52 0.51 0.50 0.51 0.50 0.51 0.52 0.53 0.54 0.53 0.52 0.52 0.54 0.54 0.52 0.52 0.52 0.52 0.52 0.52 0.50 0.50 0.50 0.51 0.50 0.50 0.50 0.49 0.49 0.49 0.49 0.48 0.49 0.51 0.52 0.54 0.55 0.55 0.55
0.59 0.57 0.56 0.54 0.52 0.53 0.54 0.53 0.54 0.53 0.53 0.52 0.52 0.51 0.50 0.51 0.50 0.50 0.50 0.51 0.52 0.51 0.51 0.52 0.50 0.50 0.51 0.51 0.51 0.50 0.49 0.48 0.47 0.45 0.45 0.47 0.49 0.51 0.51 0.52 0.52 0.52
Wind_Speed
15 14 14 13 12 11 9 9 9 8 7 7 5 4 3 3 3 4 4 4 3 3 3 3 3 3 3 3 3 4 4 4 4 4 4 4 4 4 4 5 5 5
15 15 14 14 13 12 11 10 10 9 8 8 7 5 5 4 4 4 3 3 3 3 3 3 3 3 3 3 4 4 4 4 4 4 4 4 4 4 4 4 5 5
14 14 14 13 13 13 12 11 11 10 9 9 8 7 6 5 5 5 4 4 3 3 3 4 4 4 4 4 4 4 4 4 4 4 4 4 4 4 4 4 4 4
14 14 13 13 13 13 12 11 11 11 10 10 9 8 8 7 7 6 6 5 5 4 5 5 5 5 5 5 5 5 5 4 4 4 4 4 4 4 4 4 4 4
15 15 14 13 13 13 12 12 13 13 12 11 11 10 10 9 8 7 7 6 6 6 6 6 6 6 6 6 6 6 6 6 5 5 5 5 5 5 5 5 4 4
15 15 14 13 13 13 12 12 13 13 13 13 12 11 11 10 9 8 8 7 7 7 7 7 7 7 7 7 7 8 8 7 7 7 6 6 6 6 6 6 6 5
15 15 14 14 14 13 13 13 13 14 14 13 14 13 12 11 11 10 9 9 8 8 8 8 8 8 8 8 8 9 9 9 9 8 8 8 8 8 8 8 7 7
15 15 15 14 14 14 14 14 14 14 14 14 14 15 14 13 13 12 12 11 10 10 10 9 9 9 10 10 10 10 10 10 10 10 10 9 9 9 9 9 9 9
14 14 15 15 15 15 14 14 15 15 15 15 15 15 15 15 15 15 15 14 13 13 12 12 12 12 12 12 12 12 12 12 12 11 11 11 11 11 11 11 11 11
14 14 14 15 15 15 15 15 15 16 16 16 16 16 16 16 17 17 17 16 16 15 15 14 14 14 14 14 14 14 15 15 14 14 14 13 13 13 12 12 12 12
14 14 15 15 15 15 15 16 15 15 16 17 17 17 17 17 18 18 18 18 18 17 17 17 17 16 16 16 16 16 16 16 16 16 16 16 15 15 15 15 15 15
14 14 15 15 16 16 16 17 16 15 16 16 17 18 18 18 19 19 19 19 19 19 19 19 19 18 17 17 17 17 16 16 17 17 18 18 18 17 17 17 17 17
14 14 14 15 16 17 17 17 16 16 17 17 18 19 20 20 20 20 20 20 19 19 20 20 19 18 18 18 18 17 17 17 17 18 18 18 19 19 19 18 18 18
16 15 14 15 16 17 17 17 17 17 18 18 18 19 20 20 19 19 19 19 19 19 19 19 19 19 19 19 19 19 19 19 19 19 19 19 19 20 20 21 21 21
18 17 17 17 17 17 18 18 18 18 19 19 19 19 20 20 19 19 20 20 21 20 20 20 20 20 20 20 21 21 21 21 21 21 21 20 20 21 22 22 23 23
19 19 19 19 19 19 19 19 19 19 19 18 18 17 18 18 19 19 19 20 20 20 20 20 19 19 20 21 22 22 23 23 23 23 23 22 22 23 23 24 24 25
19 19 19 20 20 19 19 19 19 19 18 18 17 17 17 17 18 18 18 18 18 19 19 19 18 19 20 21 22 22 23 23 24 24 24 24 24 25 25 25 25 25
19 19 19 20 19 19 19 19 18 18 18 17 17 17 17 18 18 18 18 18 18 19 19 19 20 20 21 21 22 22 23 23 24 24 24 24 25 25 25 25 25 26
20 20 20 20 19 19 19 19 19 19 18 18 18 18 18 19 19 19 19 20 20 20 21 21 22 22 22 23 23 23 24 24 24 25 25 25 25 25 26 26 26 27
21 21 21 21 21 21 21 20 20 20 20 20 20 20 20 20 21 21 21 21 22 22 23 23 24 24 24 25 25 25 25 25 25 26 26 26 26 26 26 27 27 28
22 22 22 22 22 22 22 22 22 22 22 22 22 22 22 22 22 23 23 23 23 24 24 24 25 25 25 26 26 26 26 26 27 27 27 27 27 27 27 27 28 28
23 23 23 23 23 23 23 23 23 23 23 23 23 23 23 23 23 23 23 24 24 24 24 25 25 26 26 26 26 26 26 27 27 27 28 28 28 28 28 28 28 28
23 23 23 23 23 23 23 23 23 24 24 24 24 24 24 24 24 24 24 25 25 25 25 25 26 26 26 27 27 26 26 27 27 27 28 28 28 28 28 28 28 28
22 22 23 23 23 23 23 23 23 24 24 24 24 24 24 24 25 25 25 26 26 26 26 26 26 27 27 27 27 27 27 27 27 28 28 28 28 28 28 28 28 27
24 23 23 23 24 24 24 24 24 25 25 26 26 25 25 25 25 26 26 26 26 27 27 27 27 27 28 28 28 28 28 28 28 29 28 29 29 28 28 28 28 27
26 26 26 26 26 26 26 26 26 26 27 27 27 27 27 27 27 27 27 27 28 28 28 28 28 28 28 28 28 28 28 28 28 29 29 29 29 28 28 28 28 28
Wind_Direction
249 253 256 258 256 255 259 260 259 259 259 259 263 266 268 274 278 279 280 281 281 286 292 299 306 310 308 302 295 288 284 282 279 277 277 277 276 275 274 273 272 271
249 251 254 255 252 252 255 254 253 256 256 255 256 260 265 271 274 275 278 281 283 284 286 291 298 304 309 308 304 298 292 287 282 279 280 279 278 279 278 276 274 271
247 247 250 253 251 253 254 250 248 250 250 251 251 254 261 267 267 267 271 276 280 282 281 284 287 292 298 300 300 299 296 293 288 284 283 280 278 277 277 277 275 272
247 248 251 253 252 253 253 247 244 244 245 247 247 250 256 261 262 262 265 268 272 277 280 279 279 282 286 289 291 291 291 292 289 287 288 285 283 279 274 274 273 271
249 252 253 251 249 249 248 244 241 242 244 245 246 250 254 256 256 258 261 266 269 274 277 277 278 277 278 281 284 285 285 285 284 283 283 284 285 283 280 278 277 274
249 252 250 248 246 244 243 242 242 242 244 245 245 247 251 252 254 255 256 261 267 271 275 278 279 277 277 278 279 280 280 279 280 280 279 278 279 280 280 278 277 276
246 247 246 246 246 244 243 243 243 243 243 244 245 246 249 252 255 255 255 258 262 267 271 275 277 278 279 279 278 278 276 275 274 275 275 275 276 277 277 276 275 274
245 246 245 245 246 246 247 245 244 244 243 244 245 246 247 251 254 255 255 258 261 264 268 270 272 275 277 277 277 276 275 275 273 272 272 272 273 274 275 275 274 272
246 246 244 243 245 246 246 245 244 244 244 245 246 248 248 250 254 255 255 257 259 262 266 268 270 272 273 273 272 271 273 274 273 271 271 270 270 272 273 274 274 272
248 248 245 244 245 245 244 243 244 246 248 248 248 250 251 252 255 255 256 257 258 260 264 268 271 272 272 271 269 270 272 272 270 270 269 269 269 271 273 274 274 273
250 250 247 245 246 246 245 244 246 250 252 251 250 251 253 255 256 256 256 257 258 260 263 267 271 272 272 269 267 268 270 271 270 268 268 268 269 270 271 273 273 273
252 252 249 247 247 247 247 247 250 254 256 254 253 254 255 257 257 257 257 258 260 262 263 267 269 271 271 269 267 268 269 270 270 268 267 267 267 267 268 269 271 271
253 253 251 248 248 249 248 249 252 256 257 257 257 257 257 259 260 258 257 259 262 263 265 266 267 268 269 269 267 267 268 268 269 269 268 267 268 268 267 267 268 269
252 253 253 252 252 250 249 252 255 257 258 260 262 261 260 260 259 256 256 259 262 265 265 265 265 266 267 267 267 267 267 267 268 270 270 269 270 271 270 268 269 269
253 254 254 255 255 253 253 255 258 259 260 262 264 264 262 259 258 257 259 262 264 266 267 266 266 266 265 267 268 269 269 269 269 270 270 270 270 273 273 272 271 270
254 255 255 256 257 256 256 258 259 259 260 262 263 263 260 259 259 261 263 264 266 267 267 267 267 267 267 268 270 270 271 270 269 269 270 270 271 273 275 275 273 271
256 256 257 257 257 257 257 258 259 259 259 259 260 261 261 261 261 262 263 265 266 266 267 267 268 268 269 270 270 270 271 270 269 270 270 271 272 274 275 275 274 272
257 257 257 257 256 255 255 256 257 257 258 259 260 261 262 262 261 262 263 264 266 267 268 269 270 272 273 273 272 271 270 270 270 270 271 272 273 274 274 274 274 274
258 257 257 256 256 255 255 256 257 257 258 260 261 261 262 262 261 262 264 265 267 268 269 270 271 273 274 274 274 274 272 271 272 272 273 273 274 274 274 274 275 274
260 259 258 258 257 257 257 257 258 259 260 261 262 262 263 263 264 265 266 267 269 270 270 271 272 273 274 274 275 275 274 273 273 273 273 274 274 274 274 275 275 275
262 261 260 259 258 258 258 260 261 262 263 264 265 265 265 265 266 267 268 269 271 271 272 273 273 274 275 275 275 275 275 274 274 273 273 274 274 274 275 275 276 275
262 261 259 258 258 258 260 261 262 263 264 265 266 266 267 268 268 269 270 272 273 273 274 274 275 275 276 276 276 276 275 275 274 274 274 274 274 274 275 276 276 276
259 258 257 257 257 258 260 261 262 263 264 265 266 267 268 269 270 271 272 273 273 274 274 274 275 276 276 277 277 277 277 277 276 276 275 275 275 275 275 276 276 277
258 257 257 256 257 257 258 260 261 263 264 264 265 266 268 269 270 271 272 272 273 274 274 275 275 276 277 277 278 278 278 278 278 278 277 276 276 276 276 276 277 277
258 257 256 257 257 257 258 259 261 262 263 264 265 266 267 268 270 271 272 272 273 273 274 275 276 277 278 278 278 278 278 279 279 279 278 277 276 276 276 276 276 277
258 257 257 258 258 258 258 259 260 262 263 264 266 267 267 268 269 270 271 272 273 273 274 275 276 277 279 279 278 278 278 279 279 279 278 277 276 276 276 276 276 276